Time,TemperatureF,DewpointF,PressureIn,WindDirection,WindDirectionDegrees,WindSpeedMPH,WindSpeedGustMPH,Humidity,HourlyPrecipIn,Conditions,Clouds,dailyrainin,SoftwareType,DateUTC
2014-01-16 00:23:00,38.0,37.0,29.86,NNW,327,1.0,-999.0,96,-99.99,,,-99.99,,2014-01-16 05:23:00,
2014-01-16 00:53:00,37.0,36.0,29.86,NNW,327,0.0,-999.0,96,-99.99,,,-99.99,,2014-01-16 05:53:00,
2014-01-16 01:22:00,37.0,36.0,29.86,NNW,327,0.0,-999.0,96,-99.99,,,-99.99,,2014-01-16 06:22:00,
2014-01-16 01:43:00,37.0,36.0,29.85,NNW,327,0.0,-999.0,96,-99.99,,,-99.99,,2014-01-16 06:43:00,
2014-01-16 01:52:00,37.0,36.0,29.85,NNW,327,0.0,-999.0,96,-99.99,,,-99.99,,2014-01-16 06:52:00,
2014-01-16 02:22:00,37.0,36.0,29.87,NNW,327,2.0,-999.0,96,-99.99,,,-99.99,,2014-01-16 07:22:00,
2014-01-16 02:52:00,38.0,37.0,29.86,NNW,327,1.0,-999.0,96,-99.99,,,-99.99,,2014-01-16 07:52:00,
2014-01-16 03:22:00,38.0,37.0,29.85,NNW,327,0.0,-999.0,96,-99.99,,,-99.99,,2014-01-16 08:22:00,
2014-01-16 03:42:00,38.0,37.0,29.85,NNW,327,1.0,-999.0,96,-99.99,,,-99.99,,2014-01-16 08:42:00,
2014-01-16 03:53:00,37.0,36.0,29.85,NNW,327,0.0,-999.0,96,-99.99,,,-99.99,,2014-01-16 08:53:00,
2014-01-16 04:22:00,37.0,36.0,29.83,NNW,327,1.0,-999.0,97,-99.99,,,-99.99,,2014-01-16 09:22:00,
2014-01-16 04:43:00,37.0,36.0,29.83,NNW,327,2.0,-999.0,97,-99.99,,,-99.99,,2014-01-16 09:43:00,
2014-01-16 04:53:00,37.0,36.0,29.83,WNW,286,3.0,-999.0,96,-99.99,,,-99.99,,2014-01-16 09:53:00,
2014-01-16 05:23:00,37.0,36.0,29.83,West,281,3.0,-999.0,97,-99.99,,,-99.99,,2014-01-16 10:23:00,
2014-01-16 05:53:00,37.0,36.0,29.83,West,281,0.0,-999.0,97,-99.99,,,-99.99,,2014-01-16 10:53:00,
2014-01-16 06:22:00,37.0,36.0,29.84,West,279,4.0,-999.0,97,-99.99,,,-99.99,,2014-01-16 11:22:00,
2014-01-16 06:42:00,37.0,36.0,29.84,West,279,3.0,-999.0,97,-99.99,,,-99.99,,2014-01-16 11:42:00,
2014-01-16 06:53:00,37.0,36.0,29.83,West,279,3.0,-999.0,97,-99.99,,,-99.99,,2014-01-16 11:53:00,
2014-01-16 07:22:00,37.0,36.0,29.83,West,279,1.0,-999.0,97,-99.99,,,-99.99,,2014-01-16 12:22:00,
2014-01-16 07:42:00,37.0,36.0,29.85,West,279,0.0,-999.0,97,-99.99,,,-99.99,,2014-01-16 12:42:00,
2014-01-16 07:52:00,37.0,36.0,29.84,West,279,2.0,-999.0,97,-99.99,,,-99.99,,2014-01-16 12:52:00,
2014-01-16 08:12:00,37.0,36.0,29.85,NW,315,3.0,-999.0,97,-99.99,,,-99.99,,2014-01-16 13:12:00,
2014-01-16 08:22:00,37.0,36.0,29.86,NNW,327,5.0,-999.0,97,-99.99,,,-99.99,,2014-01-16 13:22:00,
2014-01-16 08:42:00,36.0,35.0,29.86,NW,321,5.0,-999.0,97,-99.99,,,-99.99,,2014-01-16 13:42:00,
2014-01-16 08:52:00,36.0,35.0,29.88,NNW,342,6.0,-999.0,97,-99.99,,,-99.99,,2014-01-16 13:52:00,
2014-01-16 09:22:00,36.0,35.0,29.88,NNE,17,4.0,-999.0,96,-99.99,,,-99.99,,2014-01-16 14:22:00,
2014-01-16 09:42:00,36.0,35.0,29.89,NNE,22,5.0,-999.0,95,-99.99,,,-99.99,,2014-01-16 14:42:00,
2014-01-16 09:52:00,36.0,34.0,29.91,NNE,23,3.0,-999.0,94,-99.99,,,-99.99,,2014-01-16 14:52:00,
2014-01-16 10:22:00,36.0,34.0,29.89,NNE,23,3.0,-999.0,92,-99.99,,,-99.99,,2014-01-16 15:22:00,
2014-01-16 10:54:00,36.0,33.0,29.90,NNW,331,4.0,-999.0,89,-99.99,,,-99.99,,2014-01-16 15:54:00,
2014-01-16 11:13:00,37.0,34.0,29.89,NNW,347,1.0,-999.0,88,-99.99,,,-99.99,,2014-01-16 16:13:00,
2014-01-16 11:23:00,37.0,34.0,29.89,NNW,347,1.0,-999.0,87,-99.99,,,-99.99,,2014-01-16 16:23:00,
2014-01-16 11:43:00,37.0,33.0,29.88,NNW,348,0.0,-999.0,86,-99.99,,,-99.99,,2014-01-16 16:43:00,
2014-01-16 11:53:00,37.0,33.0,29.87,NNW,348,1.0,-999.0,85,-99.99,,,-99.99,,2014-01-16 16:53:00,
2014-01-16 12:22:00,37.0,33.0,29.86,NNW,347,1.0,-999.0,84,-99.99,,,-99.99,,2014-01-16 17:22:00,
2014-01-16 12:52:00,37.0,33.0,29.85,NW,304,5.0,-999.0,84,-99.99,,,-99.99,,2014-01-16 17:52:00,
2014-01-16 13:11:00,36.0,32.0,29.84,NW,316,4.0,-999.0,85,-99.99,,,-99.99,,2014-01-16 18:11:00,
2014-01-16 13:22:00,36.0,32.0,29.83,NW,310,4.0,-999.0,84,-99.99,,,-99.99,,2014-01-16 18:22:00,
2014-01-16 13:42:00,37.0,32.0,29.81,NW,315,4.0,-999.0,83,-99.99,,,-99.99,,2014-01-16 18:42:00,
2014-01-16 13:52:00,37.0,32.0,29.83,NW,315,1.0,-999.0,83,-99.99,,,-99.99,,2014-01-16 18:52:00,
2014-01-16 14:22:00,37.0,32.0,29.83,NW,325,4.0,-999.0,83,-99.99,,,-99.99,,2014-01-16 19:22:00,
2014-01-16 14:42:00,38.0,34.0,29.83,NW,325,3.0,-999.0,84,-99.99,,,-99.99,,2014-01-16 19:42:00,
2014-01-16 14:52:00,38.0,33.0,29.84,NW,325,1.0,-999.0,82,-99.99,,,-99.99,,2014-01-16 19:52:00,
2014-01-16 15:11:00,38.0,33.0,29.85,NW,325,1.0,-999.0,81,-99.99,,,-99.99,,2014-01-16 20:11:00,
2014-01-16 15:22:00,38.0,33.0,29.84,West,277,2.0,-999.0,81,-99.99,,,-99.99,,2014-01-16 20:22:00,
2014-01-16 15:42:00,38.0,33.0,29.84,WNW,290,3.0,-999.0,81,-99.99,,,-99.99,,2014-01-16 20:42:00,
2014-01-16 15:52:00,37.0,32.0,29.85,WNW,290,2.0,-999.0,83,-99.99,,,-99.99,,2014-01-16 20:52:00,
2014-01-16 16:22:00,37.0,32.0,29.83,WNW,290,0.0,-999.0,83,-99.99,,,-99.99,,2014-01-16 21:22:00,
2014-01-16 16:43:00,37.0,32.0,29.84,WNW,290,1.0,-999.0,82,-99.99,,,-99.99,,2014-01-16 21:43:00,
2014-01-16 16:53:00,37.0,32.0,29.84,WNW,290,1.0,-999.0,82,-99.99,,,-99.99,,2014-01-16 21:53:00,
2014-01-16 17:13:00,37.0,32.0,29.84,WNW,290,1.0,-999.0,82,-99.99,,,-99.99,,2014-01-16 22:13:00,
2014-01-16 17:23:00,37.0,32.0,29.85,WNW,290,2.0,-999.0,83,-99.99,,,-99.99,,2014-01-16 22:23:00,
2014-01-16 17:52:00,36.0,31.0,29.85,NNW,342,3.0,-999.0,83,-99.99,,,-99.99,,2014-01-16 22:52:00,
2014-01-16 18:22:00,36.0,31.0,29.86,NW,325,4.0,-999.0,82,-99.99,,,-99.99,,2014-01-16 23:22:00,
2014-01-16 18:53:00,36.0,31.0,29.87,NNW,327,2.0,-999.0,82,-99.99,,,-99.99,,2014-01-16 23:53:00,
2014-01-16 19:11:00,36.0,31.0,29.87,NNW,327,2.0,-999.0,83,-99.99,,,-99.99,,2014-01-17 00:11:00,
2014-01-16 19:22:00,36.0,31.0,29.88,NNW,327,2.0,-999.0,83,-99.99,,,-99.99,,2014-01-17 00:22:00,
2014-01-16 19:42:00,36.0,32.0,29.88,NNW,327,3.0,-999.0,84,-99.99,,,-99.99,,2014-01-17 00:42:00,
2014-01-16 19:53:00,35.0,31.0,29.88,NNW,327,1.0,-999.0,84,-99.99,,,-99.99,,2014-01-17 00:53:00,
2014-01-16 20:22:00,35.0,31.0,29.90,NW,308,3.0,-999.0,84,-99.99,,,-99.99,,2014-01-17 01:22:00,
2014-01-16 20:42:00,35.0,30.0,29.90,NW,317,4.0,-999.0,83,-99.99,,,-99.99,,2014-01-17 01:42:00,
2014-01-16 20:52:00,35.0,30.0,29.90,NW,304,4.0,-999.0,83,-99.99,,,-99.99,,2014-01-17 01:52:00,
2014-01-16 21:22:00,35.0,30.0,29.92,NW,319,3.0,-999.0,82,-99.99,,,-99.99,,2014-01-17 02:22:00,
2014-01-16 21:42:00,35.0,30.0,29.92,NW,319,1.0,-999.0,82,-99.99,,,-99.99,,2014-01-17 02:42:00,
2014-01-16 21:52:00,35.0,30.0,29.92,NW,323,2.0,-999.0,82,-99.99,,,-99.99,,2014-01-17 02:52:00,
2014-01-16 22:11:00,35.0,30.0,29.92,NW,323,0.0,-999.0,82,-99.99,,,-99.99,,2014-01-17 03:11:00,
2014-01-16 22:22:00,34.0,29.0,29.91,NW,323,3.0,-999.0,82,-99.99,,,-99.99,,2014-01-17 03:22:00,
2014-01-16 22:43:00,34.0,29.0,29.91,NW,323,1.0,-999.0,83,-99.99,,,-99.99,,2014-01-17 03:43:00,
2014-01-16 22:54:00,33.0,29.0,29.91,NW,323,1.0,-999.0,84,-99.99,,,-99.99,,2014-01-17 03:54:00,
2014-01-16 23:23:00,31.0,28.0,29.92,NW,323,0.0,-999.0,87,-99.99,,,-99.99,,2014-01-17 04:23:00,
2014-01-16 23:43:00,31.0,28.0,29.93,NW,323,2.0,-999.0,89,-99.99,,,-99.99,,2014-01-17 04:43:00,
2014-01-16 23:52:00,32.0,29.0,29.92,NW,323,1.0,-999.0,90,-99.99,,,-99.99,,2014-01-17 04:52:00,